Regional Weather Roundup
Issued by NWS

Home | Current Version | Previous Version | Text Only | Print | Product List | Glossary Off
Versions: 1 2 3 4 5 6 7 8 9 10 11 12 13 14 15 16 17 18 19 20 21 22 23 24 25 26 27

000
ASUS45 KCYS 291410
RWRWY

WYOMING REGIONAL WEATHER ROUNDUP
NATIONAL WEATHER SERVICE CHEYENNE WY
800 AM MDT WED MAR 29 2017

NOTE:  "FAIR" INDICATES FEW OR NO CLOUDS BELOW 12,000 FEET
WITH NO SIGNIFICANT WEATHER AND/OR OBSTRUCTIONS TO VISIBILITY.

WYZ001-291500-
YELLOWSTONE NATIONAL PARK

CITY           SKY/WX    TMP DP  RH WIND       PRES   REMARKS
LK YELLOWSTONE   N/A     25  22  88 CALM      30.21R
W YELLOWSTONE  NOT AVBL

$$
WYZ002>013-054>058-071-098>099-291500-
NORTHERN WYOMING

CITY           SKY/WX    TMP DP  RH WIND       PRES   REMARKS
JACKSON        CLEAR     21  19  93 N7        30.22R WCI  13
CODY           FAIR      44  23  43 SW12      30.11R
GREYBULL       FAIR      32  30  92 CALM      30.13S
WORLAND        FAIR      31  30  96 S5        30.13S WCI  26
SHERIDAN       FAIR      35  30  82 CALM      30.09S
BUFFALO        FAIR      41  25  53 SW6       30.10S
GILLETTE       FAIR      40  36  86 VRB3      30.09F
HULETT         CLOUDY    37  37 100 SW12      30.12S WCI  30
NEWCASTLE      CLOUDY    39  39 100 CALM      30.14S

$$
WYZ014>020-022>026-101>103-291500-
CENTRAL WYOMING

CITY           SKY/WX    TMP DP  RH WIND       PRES   REMARKS
BIG PINEY      FAIR      26  20  77 CALM      30.19R
PINEDALE       FAIR      28  21  74 NW12      30.18S WCI  18
DUBOIS         FAIR      32  19  59 NW12      30.16R WCI  23
LANDER         FAIR      31  26  82 N6        30.14R WCI  25
RIVERTON       FAIR      31  28  89 W6        30.15R WCI  25
CASPER         FAIR      33  31  92 SW9       30.13F WCI  25
DOUGLAS        FAIR      36  34  92 CALM      30.15R

$$
WYZ021-027>030-104>119-291500-
SOUTHERN WYOMING

CITY           SKY/WX    TMP DP  RH WIND       PRES   REMARKS
EVANSTON       FAIR      26  21  81 SW7       30.22R WCI  18
FORT BRIDGER   FAIR      30  24  79 SW5       30.25R WCI  25
ROCK SPRINGS   FAIR      30  22  72 SW13      30.20R WCI  20
DIXON            N/A     27  25  94 CALM      30.21F
RAWLINS        PTSUNNY   25  22  88 NE3       30.17S
SARATOGA       CLOUDY    32  32 100 CALM      30.18S
LARAMIE        CLOUDY    31  28  89 N13       30.13R WCI  21
CHEYENNE       CLOUDY    36  33  89 N13       30.11S WCI  27
TORRINGTON     CLOUDY    39  38  96 W10       30.10F WCI  32
PINE BLUFFS    CLOUDY    36  36 100 NW15G21   30.11S WCI  26

$$




USA.gov is the U.S. government's official web portal to all federal, state and local government web resources and services.